Location: Lublin
(51.2481°N, 22.5703°E)
Time: 23:41:22
(UTC+01:00)

ISS - Visible Passes

Search period start: 21 January 2018 00:00
Search period end: 31 January 2018 00:00
Orbit: 402 x 407 km, 51.6° (Epoch: 22 January)

Date Brightness Start Highest point End Pass type
(mag) Time Alt. Az. Time Alt. Az. Time Alt. Az.
26 Jan -0.9 18:55:58 10° SW 18:56:24 13° SW 18:56:24 13° SW visible
27 Jan -2.2 18:04:06 10° SSW 18:06:25 23° SSE 18:06:25 23° SSE visible
28 Jan -1.7 17:12:37 10° S 17:14:37 15° SE 17:16:22 11° ESE visible
28 Jan -1.9 18:47:23 10° WSW 18:49:02 26° SW 18:49:02 26° SW visible
29 Jan -3.1 17:55:12 10° SW 17:58:17 39° SSE 17:58:54 35° ESE visible
29 Jan -0.4 19:31:21 10° W 19:31:34 11° W 19:31:34 11° W visible
30 Jan -2.4 17:03:13 10° SSW 17:06:01 27° SSE 17:08:43 11° E visible
30 Jan -2.9 18:38:57 10° WSW 18:41:23 46° WSW 18:41:23 46° WSW visible
